| time (UTC) | temp F | wind direction | speed MPH | gust MPH | rain 1hr in | rain 24hr in | rain mn in | humidity % | barometer mb |
| 20260906231502 | 61 | 147 | 1.0 | 2.0 | 0.00 | 0.35 | 0.35 | 87 | 1015.7 |
| 20260906231002 | 61 | 116 | 1.0 | 2.0 | 0.00 | 0.35 | 0.35 | 87 | 1015.7 |
| 20260906230502 | 61 | 114 | 1.0 | 2.0 | 0.00 | 0.35 | 0.35 | 87 | 1015.6 |
| 20260906230002 | 61 | 127 | 1.0 | 2.0 | 0.00 | 0.35 | 0.35 | 87 | 1015.7 |
| 20260906225502 | 61 | 131 | 1.0 | 2.0 | 0.00 | 0.35 | 0.35 | 88 | 1015.7 |
| 20260906225002 | 61 | 133 | 1.0 | 2.0 | 0.00 | 0.35 | 0.35 | 89 | 1015.6 |
| 20260906224502 | 60 | 178 | 0.0 | 2.0 | 0.00 | 0.35 | 0.35 | 90 | 1015.7 |
| 20260906224024 | 60 | 172 | 1.0 | 2.0 | 0.00 | 0.35 | 0.35 | 90 | 1015.7 |
| 20260906223502 | 60 | 136 | 1.0 | 3.0 | 0.00 | 0.35 | 0.35 | 91 | 1015.6 |
| 20260906223002 | 60 | 154 | 1.0 | 3.0 | 0.00 | 0.35 | 0.35 | 91 | 1015.7 |
| 20260906222523 | 60 | 184 | 1.0 | 2.0 | 0.00 | 0.35 | 0.35 | 92 | 1015.7 |
| 20260906222002 | 59 | 174 | 1.0 | 2.0 | 0.00 | 0.35 | 0.35 | 92 | 1015.6 |
| 20260906221502 | 59 | 141 | 1.0 | 2.0 | 0.00 | 0.35 | 0.35 | 92 | 1015.6 |
| 20260906221002 | 59 | 118 | 1.0 | 2.0 | 0.00 | 0.35 | 0.35 | 92 | 1015.7 |
| 20260906220502 | 58 | 116 | 1.0 | 2.0 | 0.00 | 0.35 | 0.35 | 93 | 1015.6 |
| 20260906220002 | 58 | 131 | 1.0 | 2.0 | 0.00 | 0.35 | 0.35 | 92 | 1015.6 |
| 20260906215502 | 58 | 151 | 1.0 | 2.0 | 0.00 | 0.35 | 0.35 | 93 | 1015.6 |
| 20260906215002 | 58 | 143 | 0.0 | 2.0 | 0.00 | 0.35 | 0.35 | 93 | 1015.6 |
| 20260906214502 | 58 | 148 | 0.0 | 2.0 | 0.00 | 0.35 | 0.35 | 93 | 1015.6 |
| 20260906214023 | 58 | 131 | 0.0 | 2.0 | 0.00 | 0.35 | 0.35 | 93 | 1015.6 |
| 20260906213502 | 58 | 123 | 0.0 | 2.0 | 0.00 | 0.35 | 0.35 | 93 | 1015.6 |
| 20260906213002 | 58 | 122 | 0.0 | 2.0 | 0.00 | 0.35 | 0.35 | 93 | 1015.6 |
| 20260906212502 | 58 | 123 | 1.0 | 2.0 | 0.00 | 0.35 | 0.35 | 93 | 1015.6 |
| 20260906212002 | 58 | 118 | 1.0 | 2.0 | 0.00 | 0.35 | 0.35 | 92 | 1015.5 |
| 20260906211502 | 58 | 129 | 1.0 | 2.0 | 0.00 | 0.35 | 0.35 | 92 | 1015.5 |
| 20260906211003 | 58 | 171 | 1.0 | 2.0 | 0.00 | 0.35 | 0.35 | 92 | 1015.5 |
| 20260906210503 | 58 | 166 | 1.0 | 2.0 | 0.00 | 0.35 | 0.35 | 92 | 1015.5 |
| 20260906210003 | 58 | 138 | 1.0 | 2.0 | 0.00 | 0.35 | 0.35 | 93 | 1015.3 |
| 20260906205502 | 58 | 178 | 1.0 | 2.0 | 0.00 | 0.35 | 0.35 | 93 | 1015.3 |
| 20260906205002 | 58 | 194 | 1.0 | 2.0 | 0.00 | 0.35 | 0.35 | 92 | 1015.3 |
| 20260906204502 | 58 | 196 | 1.0 | 2.0 | 0.01 | 0.35 | 0.35 | 93 | 1015.3 |
| 20260906204002 | 58 | 153 | 1.0 | 3.0 | 0.02 | 0.35 | 0.35 | 93 | 1015.3 |
| 20260906203503 | 58 | 143 | 1.0 | 3.0 | 0.02 | 0.35 | 0.35 | 93 | 1015.3 |
| 20260906203002 | 58 | 155 | 1.0 | 2.0 | 0.02 | 0.35 | 0.35 | 93 | 1015.3 |
| 20260906202502 | 59 | 162 | 1.0 | 2.0 | 0.02 | 0.35 | 0.35 | 93 | 1015.2 |
| 20260906202002 | 59 | 174 | 1.0 | 2.0 | 0.02 | 0.35 | 0.35 | 94 | 1015.2 |
| 20260906201503 | 58 | 178 | 0.0 | 1.0 | 0.02 | 0.35 | 0.35 | 94 | 1015.2 |
| 20260906201003 | 58 | 181 | 0.0 | 1.0 | 0.02 | 0.35 | 0.35 | 94 | 1015.2 |
| 20260906200503 | 58 | 198 | 0.0 | 2.0 | 0.02 | 0.35 | 0.35 | 94 | 1015.2 |
| 20260906200002 | 58 | 209 | 0.0 | 2.0 | 0.02 | 0.35 | 0.35 | 94 | 1015.2 |
| 20260906195502 | 57 | 214 | 0.0 | 2.0 | 0.02 | 0.35 | 0.35 | 95 | 1015.1 |
| 20260906195002 | 57 | 0 | 0.0 | 0.0 | 0.02 | 0.35 | 0.35 | 95 | 1015.1 |
| 20260906194503 | 57 | 0 | 0.0 | 0.0 | 0.01 | 0.34 | 0.34 | 95 | 1015.1 |
| 20260906194003 | 57 | 0 | 0.0 | 0.0 | 0.00 | 0.33 | 0.33 | 95 | 1015.1 |
| 20260906193503 | 57 | 0 | 0.0 | 0.0 | 0.00 | 0.33 | 0.33 | 94 | 1015.1 |
| 20260906193002 | 57 | 0 | 0.0 | 0.0 | 0.00 | 0.33 | 0.33 | 95 | 1015.0 |
| 20260906192523 | 57 | 0 | 0.0 | 0.0 | 0.00 | 0.33 | 0.33 | 95 | 1015.1 |
| 20260906192024 | 57 | 0 | 0.0 | 0.0 | 0.00 | 0.33 | 0.33 | 95 | 1015.1 |
| 20260906191503 | 57 | 0 | 0.0 | 0.0 | 0.00 | 0.33 | 0.33 | 95 | 1015.0 |
| 20260906191002 | 57 | 0 | 0.0 | 0.0 | 0.00 | 0.33 | 0.33 | 95 | 1015.0 |
| 20260906190502 | 56 | 0 | 0.0 | 0.0 | 0.00 | 0.33 | 0.33 | 95 | 1015.0 |
| 20260906190023 | 56 | 0 | 0.0 | 0.0 | 0.00 | 0.33 | 0.33 | 95 | 1015.1 |
| 20260906185502 | 56 | 0 | 0.0 | 0.0 | 0.01 | 0.33 | 0.33 | 95 | 1015.0 |
| 20260906185003 | 56 | 0 | 0.0 | 0.0 | 0.01 | 0.33 | 0.33 | 95 | 1015.0 |
| 20260906184502 | 56 | 0 | 0.0 | 0.0 | 0.01 | 0.33 | 0.33 | 95 | 1014.9 |
| 20260906184002 | 56 | 0 | 0.0 | 0.0 | 0.02 | 0.33 | 0.33 | 95 | 1015.0 |
| 20260906183523 | 56 | 0 | 0.0 | 0.0 | 0.02 | 0.33 | 0.33 | 94 | 1015.0 |
| 20260906183023 | 56 | 0 | 0.0 | 0.0 | 0.03 | 0.33 | 0.33 | 94 | 1015.0 |
| 20260906182502 | 56 | 0 | 0.0 | 0.0 | 0.04 | 0.33 | 0.33 | 94 | 1014.9 |
| 20260906182003 | 56 | 108 | 0.0 | 1.0 | 0.06 | 0.33 | 0.33 | 94 | 1015.0 |
| 20260906181503 | 56 | 113 | 0.0 | 3.0 | 0.07 | 0.33 | 0.33 | 94 | 1014.9 |
| 20260906181002 | 56 | 96 | 1.0 | 3.0 | 0.08 | 0.33 | 0.33 | 95 | 1014.9 |
| 20260906180502 | 56 | 69 | 0.0 | 2.0 | 0.08 | 0.33 | 0.33 | 94 | 1014.8 |
| 20260906180002 | 56 | 67 | 0.0 | 2.0 | 0.09 | 0.33 | 0.33 | 94 | 1014.9 |
| 20260906175502 | 56 | 67 | 0.0 | 2.0 | 0.09 | 0.32 | 0.32 | 95 | 1014.8 |
| 20260906175003 | 56 | 74 | 0.0 | 2.0 | 0.09 | 0.32 | 0.32 | 95 | 1014.8 |
| 20260906174503 | 56 | 74 | 0.0 | 2.0 | 0.10 | 0.32 | 0.32 | 94 | 1014.8 |
| 20260906174003 | 56 | 249 | 0.0 | 2.0 | 0.09 | 0.31 | 0.31 | 94 | 1014.8 |
| 20260906173502 | 56 | 81 | 0.0 | 1.0 | 0.09 | 0.31 | 0.31 | 94 | 1014.8 |
| 20260906173023 | 56 | 75 | 0.0 | 1.0 | 0.08 | 0.30 | 0.30 | 94 | 1014.8 |
| 20260906172502 | 56 | 39 | 0.0 | 2.0 | 0.08 | 0.29 | 0.29 | 94 | 1014.9 |
| 20260906172002 | 56 | 38 | 0.0 | 2.0 | 0.06 | 0.27 | 0.27 | 94 | 1014.8 |
| 20260906171503 | 56 | 0 | 0.0 | 0.0 | 0.05 | 0.26 | 0.26 | 94 | 1014.8 |
| 20260906171002 | 56 | 5 | 0.0 | 1.0 | 0.05 | 0.25 | 0.25 | 94 | 1014.7 |
| 20260906170503 | 56 | 5 | 0.0 | 1.0 | 0.05 | 0.25 | 0.25 | 94 | 1014.7 |
| 20260906170002 | 56 | 5 | 0.0 | 1.0 | 0.05 | 0.24 | 0.24 | 94 | 1014.7 |
| 20260906165502 | 56 | 5 | 0.0 | 1.0 | 0.05 | 0.23 | 0.23 | 94 | 1014.7 |
| 20260906165002 | 56 | 5 | 0.0 | 1.0 | 0.06 | 0.23 | 0.23 | 94 | 1014.7 |
| 20260906164503 | 56 | 71 | 0.0 | 2.0 | 0.05 | 0.22 | 0.22 | 94 | 1014.7 |
| 20260906164003 | 56 | 116 | 0.0 | 2.0 | 0.06 | 0.22 | 0.22 | 94 | 1014.6 |
| 20260906163524 | 56 | 159 | 0.0 | 2.0 | 0.07 | 0.22 | 0.22 | 94 | 1014.5 |
| 20260906163003 | 56 | 46 | 0.0 | 1.0 | 0.07 | 0.22 | 0.22 | 94 | 1014.5 |
| 20260906162502 | 56 | 46 | 0.0 | 1.0 | 0.07 | 0.21 | 0.21 | 94 | 1014.4 |
| 20260906162003 | 56 | 0 | 0.0 | 0.0 | 0.08 | 0.21 | 0.21 | 94 | 1014.4 |
| 20260906161503 | 56 | 0 | 0.0 | 0.0 | 0.08 | 0.21 | 0.21 | 94 | 1014.3 |
| 20260906161002 | 56 | 0 | 0.0 | 0.0 | 0.07 | 0.20 | 0.20 | 94 | 1014.3 |
| 20260906160502 | 56 | 0 | 0.0 | 0.0 | 0.08 | 0.20 | 0.20 | 94 | 1014.2 |
| 20260906160002 | 56 | 0 | 0.0 | 0.0 | 0.07 | 0.19 | 0.19 | 94 | 1014.3 |
| 20260906155523 | 56 | 0 | 0.0 | 0.0 | 0.07 | 0.18 | 0.18 | 94 | 1014.3 |
| 20260906155003 | 56 | 0 | 0.0 | 0.0 | 0.06 | 0.17 | 0.17 | 94 | 1014.3 |
| 20260906154503 | 56 | 0 | 0.0 | 0.0 | 0.06 | 0.17 | 0.17 | 94 | 1014.3 |
| 20260906154002 | 56 | 0 | 0.0 | 0.0 | 0.05 | 0.16 | 0.16 | 94 | 1014.2 |
| 20260906153502 | 56 | 0 | 0.0 | 0.0 | 0.05 | 0.15 | 0.15 | 94 | 1014.2 |
| 20260906153003 | 56 | 0 | 0.0 | 0.0 | 0.05 | 0.15 | 0.15 | 94 | 1014.2 |
| 20260906152502 | 55 | 0 | 0.0 | 0.0 | 0.04 | 0.14 | 0.14 | 94 | 1014.2 |
| 20260906152002 | 55 | 0 | 0.0 | 0.0 | 0.03 | 0.13 | 0.13 | 94 | 1014.1 |
| 20260906151523 | 55 | 0 | 0.0 | 0.0 | 0.04 | 0.13 | 0.13 | 93 | 1014.1 |
| 20260906151003 | 55 | 0 | 0.0 | 0.0 | 0.04 | 0.13 | 0.13 | 93 | 1014.2 |
| 20260906150502 | 55 | 40 | 0.0 | 1.0 | 0.03 | 0.12 | 0.12 | 93 | 1014.1 |
| 20260906150002 | 55 | 40 | 0.0 | 1.0 | 0.04 | 0.12 | 0.12 | 93 | 1014.0 |
| 20260906145523 | 55 | 0 | 0.0 | 0.0 | 0.04 | 0.11 | 0.11 | 93 | 1014.0 |
| 20260906145002 | 56 | 0 | 0.0 | 0.0 | 0.04 | 0.11 | 0.11 | 93 | 1014.0 |
| 20260906144503 | 56 | 0 | 0.0 | 0.0 | 0.04 | 0.11 | 0.11 | 93 | 1013.9 |
| 20260906144002 | 56 | 34 | 0.0 | 1.0 | 0.05 | 0.11 | 0.11 | 93 | 1013.9 |
| 20260906143524 | 56 | 34 | 0.0 | 1.0 | 0.04 | 0.10 | 0.10 | 93 | 1013.9 |
| 20260906143002 | 56 | 33 | 0.0 | 1.0 | 0.05 | 0.10 | 0.10 | 93 | 1013.9 |
| 20260906142502 | 56 | 32 | 0.0 | 1.0 | 0.05 | 0.10 | 0.10 | 93 | 1013.8 |
| 20260906142024 | 56 | 4 | 0.0 | 1.0 | 0.05 | 0.10 | 0.10 | 93 | 1013.8 |
| 20260906141502 | 56 | 347 | 0.0 | 1.0 | 0.04 | 0.09 | 0.09 | 93 | 1013.7 |
| 20260906141003 | 56 | 38 | 0.0 | 1.0 | 0.06 | 0.09 | 0.09 | 93 | 1013.7 |
| 20260906140502 | 56 | 88 | 0.0 | 1.0 | 0.07 | 0.09 | 0.09 | 93 | 1013.7 |
| 20260906140024 | 56 | 0 | 0.0 | 0.0 | 0.06 | 0.08 | 0.08 | 93 | 1013.6 |
| 20260906135502 | 56 | 0 | 0.0 | 0.0 | 0.06 | 0.07 | 0.07 | 93 | 1013.6 |
| 20260906135023 | 57 | 0 | 0.0 | 0.0 | 0.06 | 0.07 | 0.07 | 93 | 1013.6 |
| 20260906134504 | 57 | 0 | 0.0 | 0.0 | 0.06 | 0.07 | 0.07 | 93 | 1013.5 |
| 20260906134002 | 57 | 0 | 0.0 | 0.0 | 0.05 | 0.06 | 0.06 | 93 | 1013.4 |
| 20260906133502 | 57 | 0 | 0.0 | 0.0 | 0.05 | 0.06 | 0.06 | 92 | 1013.3 |
| 20260906133023 | 57 | 218 | 0.0 | 1.0 | 0.04 | 0.05 | 0.06 | 92 | 1013.2 |
| 20260906132502 | 57 | 198 | 0.0 | 1.0 | 0.04 | 0.05 | 0.05 | 92 | 1013.0 |
| 20260906132003 | 57 | 167 | 0.0 | 1.0 | 0.04 | 0.05 | 0.05 | 92 | 1013.1 |
| 20260906131502 | 57 | 0 | 0.0 | 0.0 | 0.04 | 0.05 | 0.05 | 92 | 1013.1 |
| 20260906131003 | 57 | 71 | 0.0 | 1.0 | 0.02 | 0.03 | 0.03 | 92 | 1013.1 |
| 20260906130502 | 57 | 71 | 0.0 | 1.0 | 0.02 | 0.02 | 0.02 | 92 | 1013.2 |
| 20260906130023 | 57 | 71 | 0.0 | 1.0 | 0.02 | 0.02 | 0.02 | 92 | 1013.1 |
| 20260906125502 | 57 | 70 | 0.0 | 1.0 | 0.01 | 0.01 | 0.01 | 92 | 1013.1 |
| 20260906125002 | 57 | 64 | 0.0 | 1.0 | 0.01 | 0.01 | 0.01 | 91 | 1013.1 |
| 20260906124503 | 57 | 32 | 0.0 | 1.0 | 0.01 | 0.01 | 0.01 | 91 | 1013.0 |
| 20260906124002 | 57 | 340 | 0.0 | 1.0 | 0.01 | 0.01 | 0.01 | 91 | 1013.0 |
| 20260906123502 | 57 | 341 | 0.0 | 1.0 | 0.01 | 0.01 | 0.01 | 91 | 1013.0 |
| 20260906123003 | 57 | 340 | 0.0 | 1.0 | 0.01 | 0.01 | 0.01 | 91 | 1013.2 |
| 20260906122504 | 57 | 328 | 0.0 | 1.0 | 0.01 | 0.01 | 0.01 | 91 | 1013.2 |
| 20260906122002 | 58 | 328 | 0.0 | 2.0 | 0.01 | 0.01 | 0.01 | 90 | 1013.2 |
| 20260906121502 | 58 | 328 | 0.0 | 2.0 | 0.01 | 0.01 | 0.01 | 90 | 1013.2 |
| 20260906121003 | 58 | 0 | 0.0 | 0.0 | 0.01 | 0.01 | 0.01 | 90 | 1013.3 |
| 20260906120523 | 58 | 0 | 0.0 | 0.0 | 0.00 | 0.01 | 0.00 | 90 | 1013.4 |
| 20260906120023 | 58 | 0 | 0.0 | 0.0 | 0.00 | 0.01 | 0.00 | 89 | 1013.5 |
| 20260906115502 | 58 | 327 | 0.0 | 1.0 | 0.00 | 0.01 | 0.00 | 89 | 1013.5 |
| 20260906115002 | 58 | 343 | 0.0 | 1.0 | 0.00 | 0.01 | 0.00 | 89 | 1013.5 |
| 20260906114502 | 58 | 346 | 0.0 | 1.0 | 0.00 | 0.01 | 0.00 | 89 | 1013.4 |
| 20260906114003 | 58 | 341 | 1.0 | 2.0 | 0.00 | 0.01 | 0.00 | 89 | 1013.5 |
| 20260906113502 | 58 | 339 | 1.0 | 2.0 | 0.00 | 0.01 | 0.00 | 89 | 1013.5 |
| 20260906113003 | 58 | 338 | 0.0 | 2.0 | 0.00 | 0.01 | 0.00 | 89 | 1013.3 |
| 20260906112503 | 58 | 336 | 1.0 | 2.0 | 0.00 | 0.01 | 0.00 | 89 | 1013.3 |
| 20260906112024 | 58 | 337 | 1.0 | 2.0 | 0.00 | 0.01 | 0.00 | 89 | 1013.3 |
| 20260906111502 | 58 | 334 | 0.0 | 1.0 | 0.00 | 0.01 | 0.00 | 89 | 1013.2 |
| 20260906111003 | 58 | 330 | 0.0 | 1.0 | 0.00 | 0.01 | 0.00 | 89 | 1013.2 |
| 20260906110503 | 58 | 335 | 0.0 | 1.0 | 0.00 | 0.01 | 0.00 | 89 | 1013.1 |
| 20260906110003 | 58 | 342 | 0.0 | 1.0 | 0.00 | 0.01 | 0.00 | 89 | 1013.2 |
| 20260906105503 | 58 | 334 | 0.0 | 1.0 | 0.00 | 0.01 | 0.00 | 89 | 1013.1 |
| 20260906105002 | 58 | 329 | 1.0 | 2.0 | 0.00 | 0.01 | 0.00 | 89 | 1013.1 |
| 20260906104502 | 58 | 331 | 1.0 | 4.0 | 0.00 | 0.01 | 0.00 | 89 | 1013.1 |
| 20260906104023 | 58 | 334 | 1.0 | 4.0 | 0.00 | 0.01 | 0.00 | 89 | 1013.1 |
| 20260906103502 | 58 | 337 | 1.0 | 3.0 | 0.00 | 0.01 | 0.00 | 89 | 1013.0 |
| 20260906103003 | 58 | 337 | 1.0 | 3.0 | 0.00 | 0.01 | 0.00 | 89 | 1013.0 |
| 20260906102503 | 58 | 334 | 1.0 | 3.0 | 0.00 | 0.01 | 0.00 | 88 | 1013.0 |
| 20260906102003 | 58 | 332 | 1.0 | 2.0 | 0.00 | 0.01 | 0.00 | 88 | 1013.1 |
| 20260906101502 | 58 | 335 | 1.0 | 2.0 | 0.00 | 0.01 | 0.00 | 88 | 1013.1 |
| 20260906101002 | 58 | 327 | 1.0 | 2.0 | 0.00 | 0.01 | 0.00 | 88 | 1013.1 |
| 20260906100502 | 58 | 323 | 1.0 | 2.0 | 0.00 | 0.01 | 0.00 | 88 | 1013.0 |
| 20260906100003 | 59 | 327 | 1.0 | 2.0 | 0.00 | 0.01 | 0.00 | 88 | 1013.0 |
| 20260906095502 | 59 | 331 | 0.0 | 2.0 | 0.00 | 0.01 | 0.00 | 88 | 1013.0 |
| 20260906095003 | 59 | 333 | 0.0 | 2.0 | 0.00 | 0.01 | 0.00 | 88 | 1013.0 |
| 20260906094523 | 59 | 333 | 0.0 | 2.0 | 0.00 | 0.01 | 0.00 | 87 | 1013.0 |
| 20260906094003 | 59 | 330 | 0.0 | 3.0 | 0.00 | 0.01 | 0.00 | 87 | 1013.0 |
| 20260906093502 | 59 | 333 | 1.0 | 3.0 | 0.00 | 0.01 | 0.00 | 87 | 1013.0 |
| 20260906093002 | 59 | 331 | 0.0 | 2.0 | 0.00 | 0.01 | 0.00 | 87 | 1013.0 |
| 20260906092502 | 59 | 323 | 0.0 | 2.0 | 0.00 | 0.01 | 0.00 | 86 | 1013.0 |
| 20260906092003 | 59 | 331 | 0.0 | 1.0 | 0.00 | 0.01 | 0.00 | 86 | 1013.0 |
| 20260906091502 | 59 | 0 | 0.0 | 0.0 | 0.00 | 0.01 | 0.00 | 86 | 1013.0 |
| 20260906091023 | 59 | 0 | 0.0 | 0.0 | 0.00 | 0.01 | 0.00 | 86 | 1013.1 |
| 20260906090502 | 59 | 0 | 0.0 | 0.0 | 0.00 | 0.01 | 0.00 | 86 | 1013.1 |
| 20260906090002 | 59 | 0 | 0.0 | 0.0 | 0.00 | 0.01 | 0.00 | 86 | 1013.0 |
| 20260906085523 | 59 | 0 | 0.0 | 0.0 | 0.00 | 0.01 | 0.00 | 85 | 1013.0 |
| 20260906085023 | 59 | 0 | 0.0 | 0.0 | 0.00 | 0.01 | 0.00 | 85 | 1013.0 |
| 20260906084503 | 59 | 0 | 0.0 | 0.0 | 0.00 | 0.01 | 0.00 | 85 | 1013.0 |
| 20260906084003 | 59 | 0 | 0.0 | 0.0 | 0.00 | 0.01 | 0.00 | 84 | 1013.0 |
| 20260906083523 | 59 | 0 | 0.0 | 0.0 | 0.00 | 0.01 | 0.00 | 84 | 1013.1 |
| 20260906083023 | 59 | 0 | 0.0 | 0.0 | 0.00 | 0.01 | 0.00 | 84 | 1013.1 |
| 20260906082502 | 60 | 0 | 0.0 | 0.0 | 0.00 | 0.01 | 0.00 | 84 | 1013.1 |
| 20260906082002 | 60 | 0 | 0.0 | 0.0 | 0.00 | 0.01 | 0.00 | 84 | 1013.1 |
| 20260906081503 | 60 | 0 | 0.0 | 0.0 | 0.00 | 0.01 | 0.00 | 83 | 1013.1 |
| 20260906081002 | 60 | 0 | 0.0 | 0.0 | 0.00 | 0.01 | 0.00 | 83 | 1013.1 |
| 20260906080503 | 60 | 0 | 0.0 | 0.0 | 0.00 | 0.01 | 0.00 | 83 | 1013.1 |
| 20260906080024 | 60 | 0 | 0.0 | 0.0 | 0.00 | 0.01 | 0.00 | 83 | 1013.1 |
| 20260906075502 | 60 | 0 | 0.0 | 0.0 | 0.00 | 0.01 | 0.00 | 83 | 1013.1 |
| 20260906075002 | 60 | 0 | 0.0 | 0.0 | 0.00 | 0.01 | 0.00 | 83 | 1013.1 |
| 20260906074503 | 60 | 326 | 0.0 | 2.0 | 0.00 | 0.01 | 0.00 | 83 | 1013.1 |
| 20260906074002 | 60 | 325 | 1.0 | 2.0 | 0.00 | 0.01 | 0.00 | 83 | 1013.1 |
| 20260906073503 | 60 | 314 | 1.0 | 2.0 | 0.00 | 0.01 | 0.00 | 83 | 1013.0 |
| 20260906073023 | 60 | 298 | 1.0 | 2.0 | 0.00 | 0.01 | 0.00 | 83 | 1013.0 |
| 20260906072502 | 60 | 290 | 0.0 | 2.0 | 0.00 | 0.01 | 0.00 | 82 | 1013.0 |
| 20260906072003 | 60 | 289 | 0.0 | 1.0 | 0.00 | 0.01 | 0.00 | 82 | 1013.0 |
| 20260906071502 | 60 | 297 | 0.0 | 3.0 | 0.00 | 0.01 | 0.00 | 82 | 1013.0 |
| 20260906071002 | 60 | 294 | 0.0 | 3.0 | 0.00 | 0.01 | 0.00 | 82 | 1013.1 |
| 20260906070502 | 60 | 0 | 0.0 | 0.0 | 0.00 | 0.01 | 0.00 | 81 | 1013.2 |
| 20260906070024 | 60 | 0 | 0.0 | 0.0 | 0.00 | 0.01 | 0.00 | 81 | 1013.2 |
| 20260906065502 | 60 | 0 | 0.0 | 0.0 | 0.00 | 0.01 | 0.01 | 81 | 1013.2 |
| 20260906065024 | 60 | 0 | 0.0 | 0.0 | 0.00 | 0.01 | 0.01 | 81 | 1013.1 |
| 20260906064524 | 60 | 269 | 0.0 | 1.0 | 0.00 | 0.01 | 0.01 | 81 | 1013.1 |
| 20260906064003 | 60 | 269 | 0.0 | 1.0 | 0.00 | 0.01 | 0.01 | 81 | 1013.1 |
| 20260906063502 | 60 | 281 | 0.0 | 1.0 | 0.00 | 0.01 | 0.01 | 81 | 1013.1 |
| 20260906063002 | 60 | 283 | 0.0 | 2.0 | 0.00 | 0.01 | 0.01 | 81 | 1013.2 |
| 20260906062502 | 60 | 288 | 0.0 | 2.0 | 0.00 | 0.01 | 0.01 | 81 | 1013.3 |
| 20260906062003 | 60 | 0 | 0.0 | 0.0 | 0.00 | 0.01 | 0.01 | 81 | 1013.3 |
| 20260906061503 | 60 | 0 | 0.0 | 0.0 | 0.00 | 0.01 | 0.01 | 80 | 1013.3 |
| 20260906061002 | 60 | 0 | 0.0 | 0.0 | 0.00 | 0.01 | 0.01 | 80 | 1013.3 |
| 20260906060502 | 60 | 0 | 0.0 | 0.0 | 0.00 | 0.01 | 0.01 | 80 | 1013.3 |
| 20260906060003 | 60 | 0 | 0.0 | 0.0 | 0.00 | 0.01 | 0.01 | 79 | 1013.3 |
| 20260906055503 | 60 | 0 | 0.0 | 0.0 | 0.00 | 0.01 | 0.01 | 79 | 1013.4 |
| 20260906055003 | 60 | 0 | 0.0 | 0.0 | 0.00 | 0.01 | 0.01 | 79 | 1013.5 |
| 20260906054502 | 60 | 0 | 0.0 | 0.0 | 0.00 | 0.01 | 0.01 | 79 | 1013.5 |
| 20260906054003 | 60 | 0 | 0.0 | 0.0 | 0.00 | 0.01 | 0.01 | 78 | 1013.5 |
| 20260906053502 | 60 | 0 | 0.0 | 0.0 | 0.00 | 0.01 | 0.01 | 78 | 1013.5 |
| 20260906053003 | 60 | 0 | 0.0 | 0.0 | 0.00 | 0.01 | 0.01 | 78 | 1013.5 |
| 20260906052502 | 60 | 0 | 0.0 | 0.0 | 0.00 | 0.01 | 0.01 | 78 | 1013.5 |
| 20260906052024 | 59 | 319 | 0.0 | 1.0 | 0.00 | 0.01 | 0.01 | 78 | 1013.5 |
| 20260906051503 | 59 | 312 | 0.0 | 1.0 | 0.00 | 0.01 | 0.01 | 78 | 1013.4 |
| 20260906051003 | 60 | 300 | 0.0 | 1.0 | 0.00 | 0.01 | 0.01 | 78 | 1013.5 |
| 20260906050524 | 60 | 0 | 0.0 | 0.0 | 0.00 | 0.01 | 0.01 | 78 | 1013.5 |
| 20260906050002 | 60 | 0 | 0.0 | 0.0 | 0.00 | 0.01 | 0.01 | 77 | 1013.3 |
| 20260906045503 | 60 | 0 | 0.0 | 0.0 | 0.00 | 0.01 | 0.01 | 77 | 1013.4 |
| 20260906045002 | 60 | 0 | 0.0 | 0.0 | 0.00 | 0.01 | 0.01 | 76 | 1013.4 |
| 20260906044503 | 60 | 0 | 0.0 | 0.0 | 0.00 | 0.01 | 0.01 | 76 | 1013.4 |
| 20260906044024 | 60 | 0 | 0.0 | 0.0 | 0.00 | 0.01 | 0.01 | 75 | 1013.5 |
| 20260906043503 | 60 | 0 | 0.0 | 0.0 | 0.00 | 0.01 | 0.01 | 75 | 1013.6 |
| 20260906043023 | 61 | 0 | 0.0 | 0.0 | 0.00 | 0.01 | 0.01 | 74 | 1013.6 |
| 20260906042502 | 61 | 0 | 0.0 | 0.0 | 0.00 | 0.01 | 0.01 | 74 | 1013.6 |
| 20260906042003 | 61 | 0 | 0.0 | 0.0 | 0.00 | 0.01 | 0.01 | 74 | 1013.6 |
| 20260906041502 | 61 | 0 | 0.0 | 0.0 | 0.00 | 0.01 | 0.01 | 74 | 1013.7 |
| 20260906041002 | 62 | 0 | 0.0 | 0.0 | 0.00 | 0.01 | 0.01 | 73 | 1013.7 |
| 20260906040502 | 62 | 0 | 0.0 | 0.0 | 0.00 | 0.01 | 0.01 | 72 | 1013.8 |
| 20260906040002 | 62 | 0 | 0.0 | 0.0 | 0.00 | 0.01 | 0.01 | 71 | 1013.7 |
| 20260906035524 | 62 | 0 | 0.0 | 0.0 | 0.00 | 0.01 | 0.01 | 71 | 1013.7 |
| 20260906035003 | 63 | 0 | 0.0 | 0.0 | 0.00 | 0.01 | 0.01 | 71 | 1013.7 |
| 20260906034504 | 63 | 0 | 0.0 | 0.0 | 0.00 | 0.01 | 0.01 | 70 | 1013.6 |
| 20260906034002 | 63 | 0 | 0.0 | 0.0 | 0.00 | 0.01 | 0.01 | 69 | 1013.5 |
| 20260906033524 | 64 | 0 | 0.0 | 0.0 | 0.00 | 0.01 | 0.01 | 69 | 1013.5 |
| 20260906033002 | 64 | 0 | 0.0 | 0.0 | 0.00 | 0.01 | 0.01 | 68 | 1013.4 |
| 20260906032502 | 64 | 0 | 0.0 | 0.0 | 0.00 | 0.01 | 0.01 | 66 | 1013.3 |
| 20260906032002 | 64 | 0 | 0.0 | 0.0 | 0.00 | 0.01 | 0.01 | 66 | 1013.3 |
| 20260906031503 | 65 | 0 | 0.0 | 0.0 | 0.00 | 0.01 | 0.01 | 66 | 1013.3 |
| 20260906031003 | 65 | 0 | 0.0 | 0.0 | 0.00 | 0.01 | 0.01 | 66 | 1013.2 |
| 20260906030502 | 65 | 316 | 0.0 | 1.0 | 0.00 | 0.01 | 0.01 | 66 | 1013.2 |
| 20260906030002 | 65 | 312 | 0.0 | 1.0 | 0.00 | 0.01 | 0.01 | 65 | 1013.2 |
| 20260906025502 | 66 | 309 | 0.0 | 1.0 | 0.00 | 0.01 | 0.01 | 67 | 1013.2 |
| 20260906025002 | 66 | 0 | 0.0 | 0.0 | 0.00 | 0.01 | 0.01 | 67 | 1013.2 |
| 20260906024503 | 66 | 0 | 0.0 | 0.0 | 0.00 | 0.01 | 0.01 | 66 | 1013.2 |
| 20260906024002 | 67 | 0 | 0.0 | 0.0 | 0.00 | 0.01 | 0.01 | 65 | 1013.1 |
| 20260906023502 | 67 | 0 | 0.0 | 0.0 | 0.00 | 0.01 | 0.01 | 64 | 1013.1 |
| 20260906023003 | 68 | 0 | 0.0 | 0.0 | 0.00 | 0.01 | 0.01 | 64 | 1013.0 |
| 20260906022523 | 68 | 0 | 0.0 | 0.0 | 0.00 | 0.01 | 0.01 | 63 | 1013.1 |
| 20260906022003 | 68 | 0 | 0.0 | 0.0 | 0.00 | 0.01 | 0.01 | 62 | 1013.1 |
| 20260906021502 | 68 | 0 | 0.0 | 0.0 | 0.00 | 0.01 | 0.01 | 61 | 1013.1 |
| 20260906021002 | 69 | 0 | 0.0 | 0.0 | 0.00 | 0.01 | 0.01 | 60 | 1013.1 |
| 20260906020503 | 69 | 272 | 0.0 | 2.0 | 0.00 | 0.01 | 0.01 | 60 | 1013.2 |
| 20260906020024 | 69 | 272 | 0.0 | 2.0 | 0.00 | 0.01 | 0.01 | 59 | 1013.1 |
| 20260906015524 | 69 | 281 | 0.0 | 1.0 | 0.00 | 0.01 | 0.01 | 59 | 1013.2 |
| 20260906015003 | 69 | 273 | 0.0 | 2.0 | 0.00 | 0.01 | 0.01 | 58 | 1013.2 |
| 20260906014503 | 70 | 267 | 0.0 | 2.0 | 0.00 | 0.01 | 0.01 | 57 | 1013.3 |
| 20260906014024 | 70 | 260 | 0.0 | 1.0 | 0.00 | 0.01 | 0.01 | 56 | 1013.3 |
| 20260906013502 | 71 | 259 | 0.0 | 1.0 | 0.00 | 0.01 | 0.01 | 55 | 1013.3 |
| 20260906013003 | 71 | 313 | 0.0 | 1.0 | 0.00 | 0.01 | 0.01 | 55 | 1013.3 |
| 20260906012503 | 71 | 320 | 0.0 | 1.0 | 0.00 | 0.01 | 0.01 | 55 | 1013.3 |
| 20260906012002 | 71 | 323 | 0.0 | 1.0 | 0.00 | 0.01 | 0.01 | 53 | 1013.3 |
| 20260906011524 | 72 | 268 | 1.0 | 2.0 | 0.00 | 0.01 | 0.01 | 53 | 1013.2 |
| 20260906011003 | 72 | 267 | 1.0 | 2.0 | 0.00 | 0.01 | 0.01 | 52 | 1013.3 |
| 20260906010524 | 72 | 267 | 1.0 | 2.0 | 0.00 | 0.01 | 0.01 | 51 | 1013.2 |
| 20260906010003 | 72 | 257 | 1.0 | 2.0 | 0.00 | 0.01 | 0.01 | 53 | 1013.2 |
| 20260906005503 | 72 | 259 | 1.0 | 2.0 | 0.00 | 0.01 | 0.01 | 54 | 1013.2 |
| 20260906005002 | 71 | 268 | 1.0 | 2.0 | 0.00 | 0.01 | 0.01 | 54 | 1013.2 |
| 20260906004524 | 72 | 271 | 1.0 | 4.0 | 0.00 | 0.01 | 0.01 | 53 | 1013.3 |
| 20260906004003 | 72 | 274 | 1.0 | 4.0 | 0.00 | 0.02 | 0.01 | 53 | 1013.2 |
| 20260906003523 | 72 | 265 | 1.0 | 2.0 | 0.00 | 0.02 | 0.01 | 52 | 1013.3 |
| 20260906003002 | 72 | 258 | 1.0 | 2.0 | 0.00 | 0.02 | 0.01 | 53 | 1013.3 |
| 20260906002502 | 72 | 270 | 1.0 | 2.0 | 0.00 | 0.03 | 0.01 | 52 | 1013.3 |
| 20260906002002 | 72 | 272 | 1.0 | 2.0 | 0.00 | 0.03 | 0.01 | 51 | 1013.3 |
| 20260906001503 | 73 | 286 | 1.0 | 2.0 | 0.00 | 0.03 | 0.01 | 50 | 1013.4 |
| 20260906001003 | 73 | 296 | 0.0 | 3.0 | 0.00 | 0.03 | 0.01 | 50 | 1013.3 |
| 20260906000502 | 73 | 282 | 0.0 | 3.0 | 0.00 | 0.03 | 0.01 | 50 | 1013.3 |
| 20260906000024 | 73 | 277 | 0.0 | 1.0 | 0.00 | 0.03 | 0.01 | 50 | 1013.3 |
| 20260905235502 | 73 | 271 | 1.0 | 2.0 | 0.00 | 0.03 | 0.01 | 50 | 1013.4 |
| 20260905235003 | 74 | 276 | 1.0 | 2.0 | 0.00 | 0.03 | 0.01 | 49 | 1013.4 |
| 20260905234503 | 74 | 282 | 1.0 | 2.0 | 0.00 | 0.03 | 0.01 | 49 | 1013.4 |
| 20260905234003 | 74 | 285 | 1.0 | 2.0 | 0.00 | 0.03 | 0.01 | 49 | 1013.4 |
| 20260905233502 | 74 | 289 | 1.0 | 2.0 | 0.00 | 0.03 | 0.01 | 50 | 1013.5 |
| 20260905233003 | 74 | 264 | 1.0 | 2.0 | 0.00 | 0.03 | 0.01 | 50 | 1013.5 |
| 20260905232502 | 73 | 218 | 1.0 | 2.0 | 0.00 | 0.03 | 0.01 | 51 | 1013.5 |
| 20260905232002 | 73 | 231 | 0.0 | 1.0 | 0.00 | 0.03 | 0.01 | 50 | 1013.6 |